Location: Poughquag
(41.6090°N, 73.6820°W)
Time: 18:55:09
(UTC-04:00)

Transit 2A Rocket - Visible Passes

Search period start: 30 March 2020 00:00
Search period end: 09 April 2020 00:00
Orbit: 589 x 914 km, 66.7° (Epoch: 30 March)

Date Brightness Start Highest point End Pass type
(mag) Time Alt. Az. Time Alt. Az. Time Alt. Az.
30 Mar 7.9 00:11:43 10° NW 00:12:12 12° NW 00:12:12 12° NW visible
30 Mar 6.5 21:46:46 10° N 21:51:00 27° NE 21:51:00 27° NE visible
30 Mar 7.2 23:28:50 10° NW 23:30:55 23° NW 23:30:55 23° NW visible
31 Mar 6.9 21:04:46 10° N 21:08:33 18° NE 21:09:45 17° ENE visible
31 Mar 6.3 22:46:11 10° NNW 22:49:40 40° NNW 22:49:40 40° NNW visible
01 Apr 7.3 20:23:14 10° NNE 20:25:30 12° NE 20:27:50 10° ENE visible
01 Apr 5.7 22:03:43 10° NNW 22:08:27 52° NNE 22:08:27 52° NNE visible
01 Apr 7.6 23:47:01 10° NW 23:48:22 16° WNW 23:48:22 16° WNW visible
02 Apr 6.0 21:21:23 10° NNW 21:26:32 36° NE 21:27:17 34° ENE visible
02 Apr 6.8 23:03:54 10° NW 23:07:12 31° WNW 23:07:12 31° WNW visible
03 Apr 6.6 20:39:14 10° N 20:43:42 24° NE 20:46:09 18° E visible
03 Apr 5.6 22:21:06 10° NW 22:26:05 62° WNW 22:26:05 62° WNW visible
04 Apr 7.0 19:57:20 10° N 20:00:44 16° NE 20:04:16 10° ENE visible
04 Apr 5.1 21:38:31 10° NNW 21:44:12 76° ENE 21:45:00 65° ESE visible
04 Apr 7.5 23:22:37 10° WNW 23:24:56 16° W 23:24:56 16° W visible
05 Apr 5.6 20:56:05 10° NNW 21:01:34 48° NE 21:03:59 31° ESE visible
05 Apr 6.7 22:39:05 10° NW 22:43:55 29° WSW 22:43:55 29° WSW visible
06 Apr 6.2 20:13:50 10° NNW 20:18:48 31° NE 20:23:02 14° ESE visible
06 Apr 5.9 21:56:06 10° NW 22:01:37 48° WSW 22:02:59 41° SSW visible
07 Apr 5.3 21:13:23 10° NNW 21:19:07 80° WSW 21:22:06 31° SSE visible
07 Apr 7.7 22:58:54 10° W 23:00:57 12° WSW 23:02:02 11° WSW visible
08 Apr 5.3 20:30:51 10° NNW 20:36:32 65° ENE 20:41:18 17° SE visible
08 Apr 7.2 22:14:30 10° WNW 22:18:44 21° WSW 22:21:15 16° SW visible
